Time,TemperatureF,DewpointF,PressureIn,WindDirection,WindDirectionDegrees,WindSpeedMPH,WindSpeedGustMPH,Humidity,HourlyPrecipIn,Conditions,Clouds,dailyrainin,SoftwareType,DateUTC
2013-05-02 00:01:00,64.4,55.0,30.09,ESE,112,1.7,2.6,72,0.02,,,0.09,,2013-05-01 22:01:00,
2013-05-02 00:06:00,64.8,54.7,30.12,SSE,157,1.7,4.0,70,0.00,,,0.00,,2013-05-01 22:06:00,
2013-05-02 00:11:00,64.9,54.9,30.12,South,180,0.4,3.1,70,0.00,,,0.00,,2013-05-01 22:11:00,
2013-05-02 00:16:00,64.9,54.9,30.12,South,180,0.4,3.1,70,0.00,,,0.00,,2013-05-01 22:16:00,
2013-05-02 00:21:00,64.9,54.5,30.09,SSE,157,0.8,1.3,69,0.00,,,0.00,,2013-05-01 22:21:00,
2013-05-02 00:26:00,65.5,54.5,30.12,South,180,3.1,3.1,68,0.00,,,0.00,,2013-05-01 22:26:00,
2013-05-02 00:31:00,65.3,54.3,30.12,SE,135,2.2,2.6,68,0.00,,,0.00,,2013-05-01 22:31:00,
2013-05-02 00:36:00,65.5,54.1,30.09,South,180,1.7,4.9,67,0.00,,,0.00,,2013-05-01 22:36:00,
2013-05-02 00:41:00,65.7,54.0,30.09,SE,135,2.2,5.3,66,0.00,,,0.00,,2013-05-01 22:41:00,
2013-05-02 00:46:00,65.8,53.6,30.12,ESE,112,3.1,5.8,65,0.00,,,0.00,,2013-05-01 22:46:00,
2013-05-02 00:51:00,66.2,54.0,30.12,East,90,2.6,6.2,65,0.00,,,0.00,,2013-05-01 22:51:00,
2013-05-02 00:56:00,66.6,53.1,30.09,SSE,157,4.0,8.5,62,0.00,,,0.00,,2013-05-01 22:56:00,
2013-05-02 01:01:00,67.5,53.1,30.09,SSE,157,6.7,6.7,60,0.00,,,0.00,,2013-05-01 23:01:00,
2013-05-02 01:06:00,67.8,52.9,30.09,SE,135,5.8,7.6,59,0.00,,,0.00,,2013-05-01 23:06:00,
2013-05-02 01:11:00,68.0,52.2,30.09,ESE,112,7.6,13.4,57,0.00,,,0.00,,2013-05-01 23:11:00,
2013-05-02 01:16:00,68.4,52.0,30.09,SSE,157,8.9,13.4,56,0.00,,,0.00,,2013-05-01 23:16:00,
2013-05-02 01:21:00,68.9,52.0,30.09,SSE,157,5.3,7.6,55,0.00,,,0.00,,2013-05-01 23:21:00,
2013-05-02 01:26:00,68.9,52.0,30.09,SSE,157,2.6,3.1,55,0.00,,,0.00,,2013-05-01 23:26:00,
2013-05-02 01:31:00,68.9,51.4,30.09,SSE,157,3.5,4.4,54,0.00,,,0.00,,2013-05-01 23:31:00,
2013-05-02 01:36:00,69.1,51.1,30.06,SSE,157,2.2,4.0,53,0.00,,,0.00,,2013-05-01 23:36:00,
2013-05-02 01:41:00,69.4,50.9,30.06,East,90,2.2,3.5,52,0.00,,,0.00,,2013-05-01 23:41:00,
2013-05-02 01:46:00,69.4,50.9,30.06,South,180,2.2,2.6,52,0.00,,,0.00,,2013-05-01 23:46:00,
2013-05-02 01:51:00,69.4,50.9,30.06,SE,135,2.2,2.6,52,0.00,,,0.00,,2013-05-01 23:51:00,
2013-05-02 01:56:00,69.4,50.9,30.06,East,90,2.6,3.5,52,0.00,,,0.00,,2013-05-01 23:56:00,
2013-05-02 02:01:00,69.4,50.9,30.06,South,180,2.2,2.2,52,0.00,,,0.00,,2013-05-02 00:01:00,
2013-05-02 02:06:00,69.4,50.9,30.06,SE,135,1.7,3.1,52,0.00,,,0.00,,2013-05-02 00:06:00,
2013-05-02 02:11:00,69.6,50.5,30.06,ESE,112,3.1,5.3,51,0.00,,,0.00,,2013-05-02 00:11:00,
2013-05-02 02:16:00,69.6,50.5,30.03,SE,135,1.7,3.1,51,0.00,,,0.00,,2013-05-02 00:16:00,
2013-05-02 02:21:00,69.6,50.5,30.03,SE,135,1.7,1.7,51,0.00,,,0.00,,2013-05-02 00:21:00,
2013-05-02 02:26:00,69.3,50.7,30.03,SE,135,0.4,1.3,52,0.00,,,0.00,,2013-05-02 00:26:00,
2013-05-02 02:31:00,69.4,50.4,30.03,South,180,1.3,1.7,51,0.00,,,0.00,,2013-05-02 00:31:00,
2013-05-02 02:41:00,69.3,50.7,30.03,SE,135,1.3,2.2,52,0.00,,,0.00,,2013-05-02 00:41:00,
2013-05-02 02:46:00,69.3,50.7,30.00,SE,135,1.3,2.6,52,0.00,,,0.00,,2013-05-02 00:46:00,
2013-05-02 02:51:00,69.3,50.7,30.00,South,180,2.6,4.0,52,0.00,,,0.00,,2013-05-02 00:51:00,
2013-05-02 02:56:00,69.3,50.2,30.00,South,180,1.7,4.9,51,0.00,,,0.00,,2013-05-02 00:56:00,
2013-05-02 03:01:00,69.1,50.5,30.00,SSW,202,0.8,2.2,52,0.00,,,0.00,,2013-05-02 01:01:00,
2013-05-02 03:06:00,69.1,50.5,30.03,SE,135,0.0,0.0,52,0.00,,,0.00,,2013-05-02 01:06:00,
2013-05-02 03:11:00,69.1,50.5,30.03,SE,135,0.8,1.3,52,0.00,,,0.00,,2013-05-02 01:11:00,
2013-05-02 03:16:00,69.3,50.7,30.03,SE,135,0.0,0.0,52,0.00,,,0.00,,2013-05-02 01:16:00,
2013-05-02 03:21:00,69.3,50.7,30.03,SE,135,0.4,1.3,52,0.00,,,0.00,,2013-05-02 01:21:00,
2013-05-02 03:26:00,69.1,50.5,30.00,SE,135,0.4,0.8,52,0.00,,,0.00,,2013-05-02 01:26:00,
2013-05-02 03:31:00,68.9,50.5,30.00,SE,135,0.0,0.0,52,0.00,,,0.00,,2013-05-02 01:31:00,
2013-05-02 03:36:00,68.5,50.7,30.03,SE,135,1.7,2.6,53,0.00,,,0.00,,2013-05-02 01:36:00,
2013-05-02 03:41:00,68.0,51.1,30.03,SE,135,1.3,1.7,55,0.00,,,0.00,,2013-05-02 01:41:00,
2013-05-02 03:46:00,68.4,50.9,30.03,SSW,202,2.6,2.6,54,0.00,,,0.00,,2013-05-02 01:46:00,
2013-05-02 03:51:00,68.2,51.3,30.03,SW,225,4.4,4.4,55,0.00,,,0.00,,2013-05-02 01:51:00,
2013-05-02 03:56:00,68.0,51.1,30.03,SSW,202,3.1,3.5,55,0.00,,,0.00,,2013-05-02 01:56:00,
2013-05-02 04:01:00,67.8,52.0,30.03,SW,225,4.4,6.7,57,0.00,,,0.00,,2013-05-02 02:01:00,
2013-05-02 04:06:00,67.3,52.0,30.06,SW,225,5.3,5.8,58,0.00,,,0.00,,2013-05-02 02:06:00,
2013-05-02 04:11:00,66.9,52.5,30.06,SW,225,5.8,11.1,60,0.00,,,0.00,,2013-05-02 02:11:00,
2013-05-02 04:16:00,66.2,52.3,30.06,SW,225,4.9,10.2,61,0.00,,,0.00,,2013-05-02 02:16:00,
2013-05-02 04:21:00,65.8,52.3,30.06,SW,225,4.0,6.2,62,0.00,,,0.00,,2013-05-02 02:21:00,
2013-05-02 04:26:00,65.7,52.7,30.03,North,0,1.3,3.5,63,0.00,,,0.00,,2013-05-02 02:26:00,
2013-05-02 04:31:00,65.1,52.5,30.03,South,180,0.8,0.8,64,0.00,,,0.00,,2013-05-02 02:31:00,
2013-05-02 04:36:00,64.9,52.9,30.06,East,90,0.4,0.8,65,0.00,,,0.00,,2013-05-02 02:36:00,
2013-05-02 04:41:00,64.6,52.5,30.06,SE,135,0.8,3.1,65,0.00,,,0.00,,2013-05-02 02:41:00,
2013-05-02 04:46:00,64.2,53.4,30.03,NW,315,1.3,1.7,68,0.00,,,0.00,,2013-05-02 02:46:00,
2013-05-02 04:51:00,63.7,53.2,30.03,ESE,112,0.8,1.7,69,0.02,,,0.02,,2013-05-02 02:51:00,
2013-05-02 04:56:00,63.3,53.6,30.06,SSE,157,3.5,3.5,71,0.02,,,0.02,,2013-05-02 02:56:00,
2013-05-02 05:01:00,62.8,54.3,30.06,SSE,157,2.6,3.1,74,0.02,,,0.02,,2013-05-02 03:01:00,
2013-05-02 05:06:00,62.4,54.3,30.06,SE,135,3.1,4.9,75,0.02,,,0.04,,2013-05-02 03:06:00,
2013-05-02 05:11:00,62.1,54.3,30.06,SSE,157,1.7,2.6,76,0.02,,,0.04,,2013-05-02 03:11:00,
2013-05-02 05:16:00,62.1,54.7,30.03,SSE,157,2.6,2.6,77,0.05,,,0.07,,2013-05-02 03:16:00,
2013-05-02 05:21:00,61.9,54.5,30.03,ESE,112,1.7,2.2,77,0.05,,,0.07,,2013-05-02 03:21:00,
2013-05-02 05:26:00,61.5,54.1,30.03,South,180,0.8,1.7,77,0.05,,,0.07,,2013-05-02 03:26:00,
2013-05-02 05:31:00,61.2,54.1,30.03,SE,135,0.8,1.7,78,0.07,,,0.09,,2013-05-02 03:31:00,
2013-05-02 05:36:00,61.0,54.3,30.03,ESE,112,0.8,1.7,79,0.07,,,0.09,,2013-05-02 03:36:00,
2013-05-02 05:41:00,61.0,54.7,30.03,East,90,0.4,1.3,80,0.07,,,0.09,,2013-05-02 03:41:00,
2013-05-02 05:46:00,61.5,54.9,30.03,East,90,0.0,0.4,79,0.07,,,0.09,,2013-05-02 03:46:00,
2013-05-02 05:51:00,61.7,55.0,30.03,ESE,112,2.2,3.1,79,0.07,,,0.09,,2013-05-02 03:51:00,
2013-05-02 05:56:00,61.3,55.0,30.03,NE,45,2.6,3.1,80,0.07,,,0.09,,2013-05-02 03:56:00,
2013-05-02 06:01:00,61.3,55.0,30.03,ESE,112,2.2,4.0,80,0.07,,,0.09,,2013-05-02 04:01:00,
2013-05-02 06:06:00,61.3,55.0,30.03,East,90,1.3,1.7,80,0.00,,,0.09,,2013-05-02 04:06:00,
2013-05-02 06:11:00,61.2,54.9,30.03,East,90,1.3,3.1,80,0.00,,,0.09,,2013-05-02 04:11:00,
2013-05-02 06:16:00,61.2,54.9,30.03,East,90,0.8,1.7,80,0.02,,,0.11,,2013-05-02 04:16:00,
2013-05-02 06:21:00,61.2,54.9,30.03,ESE,112,1.3,3.5,80,0.02,,,0.11,,2013-05-02 04:21:00,
2013-05-02 06:26:00,61.2,54.9,30.03,ESE,112,1.7,4.0,80,0.02,,,0.11,,2013-05-02 04:26:00,
2013-05-02 06:31:00,61.0,54.7,30.03,ESE,112,1.7,3.1,80,0.02,,,0.11,,2013-05-02 04:31:00,
2013-05-02 06:36:00,61.2,54.9,30.03,East,90,2.2,4.0,80,0.02,,,0.11,,2013-05-02 04:36:00,
2013-05-02 06:41:00,61.2,55.2,30.03,SE,135,0.4,1.3,81,0.04,,,0.13,,2013-05-02 04:41:00,
2013-05-02 06:46:00,61.0,55.0,30.03,East,90,2.6,4.0,81,0.04,,,0.13,,2013-05-02 04:46:00,
2013-05-02 06:51:00,61.2,55.2,30.03,ESE,112,2.2,3.1,81,0.04,,,0.13,,2013-05-02 04:51:00,
2013-05-02 06:56:00,61.2,55.2,30.03,ESE,112,1.7,2.6,81,0.04,,,0.13,,2013-05-02 04:56:00,
2013-05-02 07:01:00,61.2,55.2,30.03,ESE,112,1.3,1.3,81,0.04,,,0.13,,2013-05-02 05:01:00,
2013-05-02 07:06:00,60.8,54.9,30.03,ESE,112,2.2,3.1,81,0.00,,,0.13,,2013-05-02 05:06:00,
2013-05-02 07:11:00,60.6,55.0,30.03,ESE,112,0.8,0.8,82,0.00,,,0.13,,2013-05-02 05:11:00,
2013-05-02 07:16:00,61.0,55.0,30.03,East,90,1.3,2.6,81,0.00,,,0.13,,2013-05-02 05:16:00,
2013-05-02 07:21:00,61.2,54.9,30.03,SE,135,1.3,3.1,80,0.00,,,0.13,,2013-05-02 05:21:00,
2013-05-02 07:26:00,61.3,55.0,30.03,East,90,1.3,1.7,80,0.00,,,0.13,,2013-05-02 05:26:00,
2013-05-02 07:31:00,61.3,54.7,30.03,ENE,67,2.2,2.6,79,0.00,,,0.13,,2013-05-02 05:31:00,
2013-05-02 07:36:00,61.5,54.9,30.03,ESE,112,2.2,3.1,79,0.00,,,0.13,,2013-05-02 05:36:00,
2013-05-02 07:41:00,61.5,54.9,30.03,East,90,2.2,3.5,79,0.00,,,0.13,,2013-05-02 05:41:00,
2013-05-02 07:46:00,61.3,54.7,30.00,ENE,67,1.3,1.7,79,0.03,,,0.16,,2013-05-02 05:46:00,
2013-05-02 07:51:00,61.3,54.7,30.00,ESE,112,1.3,3.5,79,0.03,,,0.16,,2013-05-02 05:51:00,
2013-05-02 07:56:00,61.0,54.7,30.03,ESE,112,1.7,4.0,80,0.03,,,0.16,,2013-05-02 05:56:00,
2013-05-02 08:01:00,60.8,55.2,30.03,ESE,112,2.2,3.1,82,0.03,,,0.16,,2013-05-02 06:01:00,
2013-05-02 08:06:00,61.2,55.6,30.03,East,90,3.1,3.5,82,0.00,,,0.16,,2013-05-02 06:06:00,
2013-05-02 08:11:00,61.3,55.8,30.03,NE,45,3.1,4.0,82,0.00,,,0.16,,2013-05-02 06:11:00,
2013-05-02 08:16:00,61.5,55.6,30.03,ENE,67,3.5,4.9,81,0.00,,,0.16,,2013-05-02 06:16:00,
2013-05-02 08:21:00,61.7,55.4,30.03,ESE,112,3.5,4.4,80,0.00,,,0.16,,2013-05-02 06:21:00,
2013-05-02 08:26:00,61.9,55.6,30.03,NE,45,3.1,4.9,80,0.00,,,0.16,,2013-05-02 06:26:00,
2013-05-02 08:31:00,62.1,55.8,30.03,ENE,67,3.1,4.0,80,0.00,,,0.16,,2013-05-02 06:31:00,
2013-05-02 08:36:00,62.1,55.4,30.03,ENE,67,3.1,5.8,79,0.00,,,0.16,,2013-05-02 06:36:00,
2013-05-02 08:41:00,62.2,55.6,30.03,East,90,3.5,3.5,79,0.00,,,0.16,,2013-05-02 06:41:00,
2013-05-02 08:46:00,62.2,55.6,30.03,ENE,67,3.5,5.8,79,0.00,,,0.16,,2013-05-02 06:46:00,
2013-05-02 08:51:00,62.4,55.4,30.03,ESE,112,4.0,4.0,78,0.00,,,0.16,,2013-05-02 06:51:00,
2013-05-02 08:56:00,62.4,55.4,30.06,ENE,67,3.1,4.4,78,0.00,,,0.16,,2013-05-02 06:56:00,
2013-05-02 09:01:00,62.6,55.6,30.06,ESE,112,4.0,5.3,78,0.00,,,0.16,,2013-05-02 07:01:00,
2013-05-02 09:06:00,62.8,55.4,30.03,NE,45,3.5,4.9,77,0.00,,,0.16,,2013-05-02 07:06:00,
2013-05-02 09:11:00,62.8,55.4,30.03,ESE,112,2.6,3.5,77,0.00,,,0.16,,2013-05-02 07:11:00,
2013-05-02 09:16:00,63.0,55.2,30.03,East,90,3.1,4.0,76,0.00,,,0.16,,2013-05-02 07:16:00,
2013-05-02 09:21:00,63.1,55.4,30.03,East,90,1.7,2.2,76,0.00,,,0.16,,2013-05-02 07:21:00,
2013-05-02 09:26:00,63.1,55.4,30.03,NE,45,2.2,7.6,76,0.00,,,0.16,,2013-05-02 07:26:00,
2013-05-02 09:31:00,63.3,55.6,30.03,ENE,67,1.7,4.0,76,0.00,,,0.16,,2013-05-02 07:31:00,
2013-05-02 09:36:00,63.5,55.4,30.03,East,90,1.7,2.6,75,0.00,,,0.16,,2013-05-02 07:36:00,
2013-05-02 09:41:00,63.7,55.6,30.03,East,90,0.8,0.8,75,0.00,,,0.16,,2013-05-02 07:41:00,
2013-05-02 09:46:00,63.9,55.8,30.03,NE,45,1.3,2.2,75,0.00,,,0.16,,2013-05-02 07:46:00,
2013-05-02 09:51:00,64.4,56.1,30.03,NE,45,0.8,1.3,75,0.00,,,0.16,,2013-05-02 07:51:00,
2013-05-02 09:56:00,64.9,56.7,30.03,NE,45,1.7,3.1,75,0.00,,,0.16,,2013-05-02 07:56:00,
2013-05-02 10:01:00,65.5,56.5,30.03,NE,45,1.3,1.3,73,0.00,,,0.16,,2013-05-02 08:01:00,
2013-05-02 10:06:00,65.7,56.3,30.00,NE,45,1.3,2.6,72,0.00,,,0.16,,2013-05-02 08:06:00,
2013-05-02 10:11:00,65.7,56.3,30.00,NE,45,2.2,3.1,72,0.00,,,0.16,,2013-05-02 08:11:00,
2013-05-02 10:16:00,65.8,56.5,30.00,NE,45,0.4,0.8,72,0.00,,,0.16,,2013-05-02 08:16:00,
2013-05-02 10:21:00,65.7,55.9,30.00,NE,45,2.6,3.1,71,0.00,,,0.16,,2013-05-02 08:21:00,
2013-05-02 10:26:00,65.5,55.8,30.00,NE,45,1.3,2.2,71,0.00,,,0.16,,2013-05-02 08:26:00,
2013-05-02 10:31:00,65.3,55.6,30.00,NNE,22,0.8,1.3,71,0.00,,,0.16,,2013-05-02 08:31:00,
2013-05-02 10:36:00,65.3,55.6,30.03,NE,45,2.2,3.5,71,0.00,,,0.16,,2013-05-02 08:36:00,
2013-05-02 10:41:00,65.1,55.4,30.03,NNE,22,1.7,3.5,71,0.00,,,0.16,,2013-05-02 08:41:00,
2013-05-02 10:46:00,64.9,55.2,30.03,NNE,22,2.2,3.5,71,0.00,,,0.16,,2013-05-02 08:46:00,
2013-05-02 10:51:00,64.9,55.2,30.03,NNE,22,1.7,3.5,71,0.00,,,0.16,,2013-05-02 08:51:00,
2013-05-02 10:56:00,64.8,55.8,30.03,NE,45,1.3,2.2,73,0.00,,,0.16,,2013-05-02 08:56:00,
2013-05-02 11:01:00,64.6,55.9,30.03,NNE,22,1.7,2.6,74,0.00,,,0.16,,2013-05-02 09:01:00,
2013-05-02 11:06:00,64.2,56.1,30.03,NE,45,0.8,1.3,75,0.00,,,0.16,,2013-05-02 09:06:00,
2013-05-02 11:11:00,64.0,56.7,30.03,NE,45,1.7,1.7,77,0.00,,,0.16,,2013-05-02 09:11:00,
2013-05-02 11:16:00,63.9,56.8,30.03,NE,45,1.7,2.2,78,0.00,,,0.16,,2013-05-02 09:16:00,
2013-05-02 11:21:00,64.0,56.7,30.03,NE,45,1.3,3.5,77,0.00,,,0.16,,2013-05-02 09:21:00,
2013-05-02 11:26:00,64.0,56.3,30.00,NNE,22,2.2,2.6,76,0.00,,,0.16,,2013-05-02 09:26:00,
2013-05-02 11:31:00,64.2,56.5,30.00,NE,45,1.3,1.7,76,0.00,,,0.16,,2013-05-02 09:31:00,
2013-05-02 11:36:00,64.2,56.5,30.00,East,90,1.3,3.1,76,0.00,,,0.16,,2013-05-02 09:36:00,
2013-05-02 11:41:00,64.4,56.7,30.00,SE,135,0.8,2.6,76,0.00,,,0.16,,2013-05-02 09:41:00,
2013-05-02 11:46:00,64.4,57.0,30.03,SE,135,0.4,0.0,77,0.00,,,0.16,,2013-05-02 09:46:00,
2013-05-02 11:51:00,64.4,57.4,30.03,SE,135,0.4,1.3,78,0.00,,,0.16,,2013-05-02 09:51:00,
2013-05-02 11:56:00,64.4,57.0,30.03,East,90,3.1,3.1,77,0.00,,,0.16,,2013-05-02 09:56:00,
2013-05-02 12:01:00,64.9,56.7,30.03,NNE,22,1.7,2.6,75,0.00,,,0.16,,2013-05-02 10:01:00,
2013-05-02 12:06:00,65.3,57.0,30.03,ESE,112,0.8,1.3,75,0.00,,,0.16,,2013-05-02 10:06:00,
2013-05-02 12:11:00,64.8,56.8,30.03,ESE,112,0.8,2.6,76,0.00,,,0.16,,2013-05-02 10:11:00,
2013-05-02 12:16:00,64.4,57.4,30.03,SE,135,1.7,2.6,78,0.00,,,0.16,,2013-05-02 10:16:00,
2013-05-02 12:21:00,64.2,57.2,30.03,SE,135,2.2,4.4,78,0.00,,,0.16,,2013-05-02 10:21:00,
2013-05-02 12:26:00,64.8,56.5,30.03,SE,135,0.4,1.7,75,0.00,,,0.16,,2013-05-02 10:26:00,
2013-05-02 12:31:00,65.5,56.8,30.03,ESE,112,0.8,2.6,74,0.00,,,0.16,,2013-05-02 10:31:00,
2013-05-02 12:36:00,66.0,57.0,30.03,SSE,157,0.8,0.8,73,0.00,,,0.16,,2013-05-02 10:36:00,
2013-05-02 12:46:00,67.3,56.7,30.03,SSE,157,0.8,2.2,69,0.00,,,0.16,,2013-05-02 10:46:00,
2013-05-02 12:51:00,67.8,57.2,30.03,SE,135,0.0,0.4,69,0.00,,,0.16,,2013-05-02 10:51:00,
2013-05-02 12:56:00,68.4,57.4,30.00,SE,135,0.0,0.0,68,0.00,,,0.16,,2013-05-02 10:56:00,
2013-05-02 13:01:00,68.9,57.0,30.00,SE,135,0.8,0.8,66,0.00,,,0.16,,2013-05-02 11:01:00,
2013-05-02 13:06:00,69.1,56.3,30.03,South,180,0.8,2.6,64,0.00,,,0.16,,2013-05-02 11:06:00,
2013-05-02 13:11:00,69.1,56.7,30.03,South,180,0.8,0.8,65,0.00,,,0.16,,2013-05-02 11:11:00,
2013-05-02 13:16:00,69.4,57.6,30.00,SSW,202,0.4,0.4,66,0.00,,,0.16,,2013-05-02 11:16:00,
2013-05-02 13:21:00,69.3,55.6,30.00,South,180,1.3,1.7,62,0.00,,,0.16,,2013-05-02 11:21:00,
2013-05-02 13:26:00,69.4,55.4,30.00,SSW,202,0.8,0.8,61,0.00,,,0.16,,2013-05-02 11:26:00,
2013-05-02 13:31:00,69.6,55.0,30.00,South,180,0.4,3.5,60,0.00,,,0.16,,2013-05-02 11:31:00,
2013-05-02 13:36:00,69.8,54.3,30.03,SSW,202,0.8,0.0,58,0.00,,,0.16,,2013-05-02 11:36:00,
2013-05-02 13:41:00,69.8,55.2,30.03,SW,225,0.0,0.0,60,0.00,,,0.16,,2013-05-02 11:41:00,
2013-05-02 13:46:00,69.8,54.3,30.00,SW,225,0.4,0.8,58,0.00,,,0.16,,2013-05-02 11:46:00,
2013-05-02 13:51:00,70.2,55.0,30.00,SW,225,0.8,3.1,59,0.00,,,0.16,,2013-05-02 11:51:00,
2013-05-02 13:56:00,70.5,56.3,30.03,West,270,0.8,3.5,61,0.00,,,0.16,,2013-05-02 11:56:00,
2013-05-02 14:01:00,70.5,58.1,30.03,NW,315,0.8,1.7,65,0.00,,,0.16,,2013-05-02 12:01:00,
2013-05-02 14:06:00,70.5,59.0,30.00,NW,315,0.4,1.3,67,0.00,,,0.16,,2013-05-02 12:06:00,
2013-05-02 14:11:00,70.9,59.4,30.00,WNW,292,0.4,0.0,67,0.00,,,0.16,,2013-05-02 12:11:00,
2013-05-02 14:16:00,71.4,59.7,30.03,SW,225,0.4,2.2,67,0.00,,,0.16,,2013-05-02 12:16:00,
2013-05-02 14:21:00,71.8,59.7,30.03,NW,315,0.4,0.4,66,0.00,,,0.16,,2013-05-02 12:21:00,
2013-05-02 14:26:00,73.0,61.0,30.00,West,270,0.8,2.2,66,0.00,,,0.16,,2013-05-02 12:26:00,
2013-05-02 14:31:00,73.8,59.9,30.00,West,270,0.4,2.6,62,0.00,,,0.16,,2013-05-02 12:31:00,
2013-05-02 14:36:00,73.2,56.5,30.00,SSW,202,1.3,1.3,56,0.00,,,0.16,,2013-05-02 12:36:00,
2013-05-02 14:41:00,73.4,56.7,30.00,SSE,157,0.4,0.4,56,0.00,,,0.16,,2013-05-02 12:41:00,
2013-05-02 14:46:00,73.6,55.8,30.00,South,180,0.4,3.5,54,0.00,,,0.16,,2013-05-02 12:46:00,
2013-05-02 14:51:00,74.1,56.3,30.00,South,180,0.0,0.4,54,0.00,,,0.16,,2013-05-02 12:51:00,
2013-05-02 14:56:00,74.7,55.8,30.00,SSW,202,0.8,0.0,52,0.00,,,0.16,,2013-05-02 12:56:00,
2013-05-02 15:01:00,74.8,54.9,30.00,SSW,202,2.6,3.5,50,0.00,,,0.16,,2013-05-02 13:01:00,
2013-05-02 15:06:00,74.3,53.2,29.97,SSW,202,1.7,2.6,48,0.00,,,0.16,,2013-05-02 13:06:00,
2013-05-02 15:11:00,73.8,52.7,29.97,SSW,202,1.7,2.6,48,0.00,,,0.16,,2013-05-02 13:11:00,
2013-05-02 15:16:00,74.7,54.7,30.00,SW,225,0.4,2.2,50,0.00,,,0.16,,2013-05-02 13:16:00,
2013-05-02 15:21:00,75.2,54.7,30.00,West,270,1.7,4.0,49,0.00,,,0.16,,2013-05-02 13:21:00,
2013-05-02 15:31:00,75.2,53.4,30.00,SW,225,4.0,4.0,47,0.00,,,0.16,,2013-05-02 13:31:00,
2013-05-02 15:36:00,75.0,59.2,29.97,WNW,292,3.5,4.4,58,0.00,,,0.16,,2013-05-02 13:36:00,
2013-05-02 15:41:00,74.8,59.9,29.97,WNW,292,3.1,3.1,60,0.00,,,0.16,,2013-05-02 13:41:00,
2013-05-02 15:46:00,74.7,59.7,30.00,WNW,292,2.6,5.8,60,0.00,,,0.16,,2013-05-02 13:46:00,
2013-05-02 15:51:00,73.9,59.5,30.00,WSW,247,3.1,4.0,61,0.00,,,0.16,,2013-05-02 13:51:00,
2013-05-02 15:56:00,73.8,59.4,29.97,WSW,247,2.6,6.2,61,0.00,,,0.16,,2013-05-02 13:56:00,
2013-05-02 16:01:00,74.1,59.2,29.97,West,270,3.1,3.1,60,0.00,,,0.16,,2013-05-02 14:01:00,
2013-05-02 16:06:00,74.1,59.2,30.00,West,270,3.1,4.4,60,0.00,,,0.16,,2013-05-02 14:06:00,
2013-05-02 16:11:00,73.9,59.5,30.00,West,270,3.5,8.0,61,0.00,,,0.16,,2013-05-02 14:11:00,
2013-05-02 16:16:00,73.0,58.6,29.97,WNW,292,3.1,3.1,61,0.00,,,0.16,,2013-05-02 14:16:00,
2013-05-02 16:21:00,72.5,58.3,29.97,SW,225,3.1,4.0,61,0.00,,,0.16,,2013-05-02 14:21:00,
2013-05-02 16:26:00,72.9,57.6,29.97,NW,315,3.1,4.4,59,0.00,,,0.16,,2013-05-02 14:26:00,
2013-05-02 16:31:00,72.9,57.6,29.97,WNW,292,3.5,7.6,59,0.00,,,0.16,,2013-05-02 14:31:00,
2013-05-02 18:08:00,71.4,55.8,30.00,WNW,292,1.7,2.2,58,0.00,,,0.16,,2013-05-02 16:08:00,
2013-05-02 18:15:00,71.2,56.1,30.00,NNW,337,1.3,2.6,59,0.00,,,0.16,,2013-05-02 16:15:00,
2013-05-02 18:20:00,71.1,56.3,29.97,NW,315,2.2,4.9,60,0.00,,,0.16,,2013-05-02 16:20:00,
2013-05-02 18:25:00,70.9,56.7,29.97,NW,315,2.2,2.6,61,0.00,,,0.16,,2013-05-02 16:25:00,
2013-05-02 18:30:00,70.2,56.5,30.00,NNW,337,2.6,2.6,62,0.00,,,0.16,,2013-05-02 16:30:00,
2013-05-02 18:35:00,69.8,56.1,30.00,North,0,1.3,2.2,62,0.00,,,0.16,,2013-05-02 16:35:00,
2013-05-02 18:40:00,69.8,57.0,30.00,NNW,337,2.6,4.4,64,0.00,,,0.16,,2013-05-02 16:40:00,
2013-05-02 18:45:00,69.3,56.8,30.00,North,0,3.5,6.2,65,0.00,,,0.16,,2013-05-02 16:45:00,
2013-05-02 18:50:00,68.7,56.3,30.00,NNE,22,3.5,3.5,65,0.00,,,0.16,,2013-05-02 16:50:00,
2013-05-02 18:55:00,68.5,56.3,30.00,North,0,2.2,2.6,65,0.00,,,0.16,,2013-05-02 16:55:00,
2013-05-02 19:00:00,68.2,56.3,30.00,NNE,22,4.9,7.6,66,0.00,,,0.16,,2013-05-02 17:00:00,
2013-05-02 19:05:00,67.6,55.8,30.00,NE,45,4.4,6.2,66,0.00,,,0.16,,2013-05-02 17:05:00,
2013-05-02 19:10:00,67.6,56.7,29.97,NNE,22,4.4,6.7,68,0.00,,,0.16,,2013-05-02 17:10:00,
2013-05-02 19:15:00,67.5,56.8,29.97,NE,45,4.9,8.0,69,0.00,,,0.16,,2013-05-02 17:15:00,
2013-05-02 19:20:00,67.3,56.7,30.00,NNE,22,3.5,5.8,69,0.00,,,0.16,,2013-05-02 17:20:00,
2013-05-02 19:25:00,67.1,56.5,30.00,NNE,22,3.5,5.8,69,0.00,,,0.16,,2013-05-02 17:25:00,
2013-05-02 19:30:00,66.9,56.3,29.97,NE,45,3.1,3.1,69,0.00,,,0.16,,2013-05-02 17:30:00,
2013-05-02 19:35:00,66.7,56.1,29.97,NNE,22,3.5,3.5,69,0.00,,,0.16,,2013-05-02 17:35:00,
2013-05-02 19:45:00,66.4,56.1,29.97,NNE,22,4.0,4.0,70,0.00,,,0.16,,2013-05-02 17:45:00,
2013-05-02 19:50:00,66.2,56.1,29.97,NE,45,3.5,5.8,70,0.00,,,0.16,,2013-05-02 17:50:00,
2013-05-02 19:55:00,66.2,56.1,29.97,NE,45,2.6,2.6,70,0.00,,,0.16,,2013-05-02 17:55:00,
2013-05-02 20:00:00,66.2,56.1,29.97,NE,45,2.6,2.6,70,0.00,,,0.16,,2013-05-02 18:00:00,
2013-05-02 20:05:00,66.0,55.9,30.00,NE,45,3.1,4.4,70,0.00,,,0.16,,2013-05-02 18:05:00,
2013-05-02 20:11:00,65.8,55.8,29.97,NE,45,1.7,2.2,70,0.00,,,0.16,,2013-05-02 18:11:00,
2013-05-02 20:17:00,65.8,55.8,29.97,ENE,67,2.2,3.5,70,0.00,,,0.16,,2013-05-02 18:17:00,
2013-05-02 20:22:00,65.7,55.6,29.97,NE,45,1.7,5.3,70,0.00,,,0.16,,2013-05-02 18:22:00,
2013-05-02 20:27:00,65.5,55.4,29.97,East,90,2.2,4.0,70,0.00,,,0.16,,2013-05-02 18:27:00,
2013-05-02 20:32:00,65.3,55.2,29.97,East,90,1.3,2.2,70,0.00,,,0.16,,2013-05-02 18:32:00,
2013-05-02 20:37:00,65.5,55.4,29.97,NE,45,1.3,1.3,70,0.00,,,0.16,,2013-05-02 18:37:00,
2013-05-02 20:47:00,64.9,55.6,29.97,North,0,3.1,3.1,72,0.00,,,0.16,,2013-05-02 18:47:00,
2013-05-02 20:52:00,64.6,55.6,29.97,NE,45,1.3,1.7,73,0.00,,,0.16,,2013-05-02 18:52:00,
2013-05-02 20:57:00,64.4,55.8,29.97,NE,45,2.2,2.6,74,0.00,,,0.16,,2013-05-02 18:57:00,
2013-05-02 21:02:00,64.2,56.1,30.00,NE,45,2.2,3.5,75,0.00,,,0.16,,2013-05-02 19:02:00,
2013-05-02 21:07:00,63.9,56.1,30.00,NE,45,2.6,4.0,76,0.00,,,0.16,,2013-05-02 19:07:00,
2013-05-02 21:17:00,63.7,56.7,29.97,NE,45,2.2,3.1,78,0.00,,,0.16,,2013-05-02 19:17:00,
2013-05-02 21:22:00,63.5,56.8,30.00,NE,45,2.6,3.1,79,0.00,,,0.16,,2013-05-02 19:22:00,
2013-05-02 21:32:00,63.3,56.7,29.97,NE,45,1.3,3.1,79,0.00,,,0.16,,2013-05-02 19:32:00,
2013-05-02 21:37:00,63.3,56.7,29.97,NE,45,1.7,2.6,79,0.00,,,0.16,,2013-05-02 19:37:00,
2013-05-02 21:42:00,63.3,57.0,30.00,NE,45,2.6,3.1,80,0.00,,,0.16,,2013-05-02 19:42:00,
2013-05-02 21:47:00,63.1,56.8,30.00,NNE,22,3.1,3.5,80,0.00,,,0.16,,2013-05-02 19:47:00,
2013-05-02 21:57:00,62.8,56.8,30.00,NNE,22,2.2,4.0,81,0.00,,,0.16,,2013-05-02 19:57:00,
2013-05-02 22:02:00,62.6,57.0,30.00,NNE,22,3.1,3.1,82,0.00,,,0.16,,2013-05-02 20:02:00,
2013-05-02 22:07:00,62.4,56.8,30.00,NNE,22,1.7,4.0,82,0.00,,,0.16,,2013-05-02 20:07:00,
2013-05-02 22:12:00,62.2,56.8,30.00,NE,45,2.6,3.5,83,0.00,,,0.16,,2013-05-02 20:12:00,
2013-05-02 22:17:00,62.2,56.8,30.00,NE,45,2.2,3.1,83,0.00,,,0.16,,2013-05-02 20:17:00,
2013-05-02 22:22:00,62.2,56.8,30.00,NNE,22,2.6,2.6,83,0.00,,,0.16,,2013-05-02 20:22:00,
2013-05-02 22:27:00,62.1,56.7,30.00,NE,45,4.4,4.4,83,0.00,,,0.16,,2013-05-02 20:27:00,
2013-05-02 22:32:00,62.1,56.7,30.00,NNE,22,4.4,7.6,83,0.00,,,0.16,,2013-05-02 20:32:00,
2013-05-02 22:37:00,62.1,56.5,30.00,NE,45,4.4,5.3,82,0.00,,,0.16,,2013-05-02 20:37:00,
2013-05-02 22:47:00,62.1,56.1,30.00,ENE,67,4.0,6.2,81,0.00,,,0.16,,2013-05-02 20:47:00,
2013-05-02 22:52:00,62.1,55.8,29.97,NE,45,4.4,5.3,80,0.00,,,0.16,,2013-05-02 20:52:00,
2013-05-02 22:57:00,62.2,55.6,29.97,NE,45,4.9,4.9,79,0.00,,,0.16,,2013-05-02 20:57:00,
2013-05-02 23:07:00,62.4,55.8,30.00,NE,45,4.4,10.2,79,0.00,,,0.16,,2013-05-02 21:07:00,
2013-05-02 23:12:00,62.6,55.6,29.97,ENE,67,4.0,5.3,78,0.00,,,0.16,,2013-05-02 21:12:00,
2013-05-02 23:17:00,62.6,55.6,29.97,ENE,67,4.0,5.3,78,0.00,,,0.16,,2013-05-02 21:17:00,
2013-05-02 23:22:00,63.0,55.2,29.97,NE,45,3.5,6.7,76,0.00,,,0.16,,2013-05-02 21:22:00,
2013-05-02 23:27:00,63.1,55.0,29.97,NE,45,3.1,8.0,75,0.00,,,0.16,,2013-05-02 21:27:00,
2013-05-02 23:32:00,63.3,54.9,29.97,NE,45,3.1,3.5,74,0.00,,,0.16,,2013-05-02 21:32:00,
2013-05-02 23:37:00,63.3,54.9,29.97,ENE,67,2.2,4.0,74,0.00,,,0.16,,2013-05-02 21:37:00,
2013-05-02 23:42:00,63.3,54.5,29.97,East,90,2.2,4.4,73,0.00,,,0.16,,2013-05-02 21:42:00,
2013-05-02 23:47:00,63.5,54.1,30.00,NE,45,1.7,2.2,72,0.00,,,0.16,,2013-05-02 21:47:00,
2013-05-02 23:52:00,63.5,53.8,30.00,East,90,1.7,3.1,71,0.00,,,0.16,,2013-05-02 21:52:00,